Regional Weather Roundup
Issued by NWS Goodland, KS

Home | Current Version | Previous Version | Graphics & Text | Print | Product List | Glossary Off
Versions: 1 2 3 4 5 6 7 8 9 10 11 12 13 14 15 16 17 18 19 20 21 22 23 24 25 26 27 28 29 30 31 32 33 34 35 36 37 38 39 40 41 42 43 44 45 46 47 48 49 50

000
ASUS43 KGLD 300259
RWRGLD

GOODLAND FORECAST AREA HOURLY WEATHER ROUNDUP
NATIONAL WEATHER SERVICE GOODLAND KS
900 PM MDT FRI AUG 29 2014

...OFFICIAL OBSERVATIONS...

CITY           SKY/WX    TMP DP  RH WIND       PRES   REMARKS
GOODLAND KS    PTCLDY    67  57  70 CALM      30.03R
HILL CITY KS   CLEAR     69  62  78 CALM      29.93R
IMPERIAL NEB   CLEAR     68  57  68 NE10      30.02R
MCCOOK NEB     CLEAR     69  58  67 N8        29.97R
AKRON CO       CLOUDY    65  48  54 NW9       30.10R
BURLINGTON CO  MOCLDY    69  52  54 CALM      30.06R
LIMON CO       CLOUDY    63  50  62 W8        30.17R
$$

...UNOFFICIAL OBSERVATIONS...

CITY           SKY/WX    TMP DP  RH WIND       PRES   REMARKS
COLBY KS       CLEAR     70  61  73 CALM      30.00R
GOVE KS          N/A     68  32  26 CALM        N/A
NORTON KS      CLEAR     68  55  64 CALM      29.93R
SHARON SPRINGS   N/A     68  55  62 CALM        N/A
WAKEENEY KS      N/A     73  50  45 MISG        N/A
KIT CARSON CO    N/A     72  47  40 N7G20       N/A
YUMA CO          N/A     68  56  64 W14         N/A
$$



USA.gov is the U.S. government's official web portal to all federal, state and local government web resources and services.